NOAA 16 DEB, 41429

Orbit data source: Space-Track

NOAA 16 DEB, 41429 is space debris in SSO originally from a launch on Thu, 21 Sep 2000 UTC launched from the Air Force Western Test Range (AFWTR). Debris objects in space refer to the collection of defunct objects orbiting the Earth. Examples of debris include non-operational satellites, rocket bodies, and fragments generated from explosions, collisions, or faulty payload assembly.

Loading next visibility...
NOAA 16 DEB details
Identifier
41429, 2000-055LJ
Orbit
SSO
Last TLE update15 hours ago
Origin
Flag of USNOAA (US)
ManufacturerUnknown
MissionSpacecraft
Bus & MotorUnknown
MassUnknown
Launch date (UTC)
2000-09-21 (24 years ago)
Launch vehicleUnknown
Launch site
Air Force Western Test Range (AFWTR)
Object type
Payload
Rocket body
Debris
Shape & HBRUnknown
Radar Cross SectionSmall (<0.1 m²)

Expand to show TLE details & history

TLE from 15 hours ago
0 NOAA 16 DEB
1 41429U 00055LJ  24361.08237282  .00008782  00000-0  37964-2 0  9994
2 41429  98.7355  77.7107 0018098 115.8297 244.4751 14.24504502456310
Epoch: 2024-12-26T01:58Z
Definitive object data (Epoch: 2024-12-26T01:58:37.011Z)
Latitude-0.00003°
Longitude-47.01038°
Altitude818.705 km
Speed7.441 km/s
True Right ascension05h 10m 50s
True Declination0° 00' 00"
Sunlit
Object was in full shadow at TLE epoch
Visualization TLE readout
Latitude-76.57918°
Longitude93.76616°
Altitude848.38 km
Speed7.422 km/s
Apparent Right ascension04h 45m 55s
Apparent Declination-72° 55' 51"
Sunlit
Object is in daylight
Visualization observer readout
Local Sidereal Time16:02:48
Azimuth185.717° SSW
Elevation-56.57°
Doppler factor1
Orbital elements
Apogee altitude820.317 km
Perigee altitude794.309 km
Semi-major axis7,185.45 km
Eccentricity0.0018098
Inclination98.7355°
RAAN77.7107°
Arg. of periapsis115.8297°
True anomaly244.28814°
Mean anomaly244.4751°
Eccentric anomaly244.3816°
Mean motion3.56338 °/min
BSTAR0.0037964
Orbital period101.03 mins
Loading maneuver chart data...
Loading historical data...
Loading historical data...
Loading historical data...
Loading historical data...
Loading historical data...
Loading historical data...
Loading historical data...

NOAA 16 DEB Visibility forecast

Observer location: undefined°, undefined

Span
Click to sort rows by Start time (UTC) header in descending order
Start Az.
Max El. time (UTC)
Max El. Az.
Max El.
End time (UTC)
End Az.
9 mins2024-12-26 17:43:36.354Z27.578° NE2024-12-26 17:48:36.354Z107.542° ESE35.031°2024-12-26 17:52:36.354Z168.669° S
6 mins2024-12-26 19:25:36.354Z329.851° NNW2024-12-26 19:27:36.354Z300.766° NW20.755°2024-12-26 19:31:36.354Z247.909° W
9 mins2024-12-27 05:04:36.354Z153.079° SSE2024-12-27 05:08:36.354Z61.182° ENE42.917°2024-12-27 05:13:36.354Z351.724° N
|